Time,TemperatureF,DewpointF,PressureIn,WindDirection,WindDirectionDegrees,WindSpeedMPH,WindSpeedGustMPH,Humidity,HourlyPrecipIn,Conditions,Clouds,dailyrainin,SoftwareType,DateUTC
2013-04-02 00:03:00,32.0,15.0,29.79,NW,310,10.0,-999.0,49,-99.99,,,-99.99,,2013-04-02 04:03:00,
2013-04-02 00:13:00,32.0,15.0,29.79,NW,310,10.0,-999.0,49,-99.99,,,-99.99,,2013-04-02 04:13:00,
2013-04-02 00:23:00,32.0,15.0,29.80,NW,312,11.0,-999.0,48,-99.99,,,-99.99,,2013-04-02 04:23:00,
2013-04-02 00:33:00,32.0,15.0,29.80,WNW,282,8.0,20.0,48,0.00,,,0.00,,2013-04-02 04:33:00,
2013-04-02 00:43:00,32.0,15.0,29.80,WNW,282,8.0,20.0,48,0.00,,,0.00,,2013-04-02 04:43:00,
2013-04-02 00:53:00,31.0,14.0,29.80,NW,309,8.0,19.0,49,0.00,,,0.00,,2013-04-02 04:53:00,
2013-04-02 01:02:00,31.0,14.0,29.81,WNW,296,11.0,20.0,49,0.00,,,0.00,,2013-04-02 05:02:00,
2013-04-02 01:12:00,31.0,14.0,29.81,WNW,296,11.0,20.0,49,0.00,,,0.00,,2013-04-02 05:12:00,
2013-04-02 01:22:00,31.0,13.0,29.81,NW,311,15.0,23.0,46,0.00,,,0.00,,2013-04-02 05:22:00,
2013-04-02 01:32:00,31.0,13.0,29.82,NW,313,8.0,16.0,47,0.00,,,0.00,,2013-04-02 05:32:00,
2013-04-02 01:43:00,31.0,13.0,29.82,NW,313,8.0,16.0,47,0.00,,,0.00,,2013-04-02 05:43:00,
2013-04-02 01:52:00,30.0,12.0,29.82,NNW,341,15.0,22.0,47,0.00,,,0.00,,2013-04-02 05:52:00,
2013-04-02 02:02:00,30.0,12.0,29.82,WNW,291,9.0,28.0,46,0.00,,,0.00,,2013-04-02 06:02:00,
2013-04-02 02:12:00,30.0,12.0,29.82,WNW,291,9.0,28.0,46,0.00,,,0.00,,2013-04-02 06:12:00,
2013-04-02 02:22:00,30.0,12.0,29.83,WNW,295,7.0,19.0,46,0.00,,,0.00,,2013-04-02 06:22:00,
2013-04-02 02:32:00,30.0,13.0,29.82,NW,326,8.0,17.0,48,0.00,,,0.00,,2013-04-02 06:32:00,
2013-04-02 02:42:00,30.0,13.0,29.82,NW,326,8.0,17.0,48,0.00,,,0.00,,2013-04-02 06:42:00,
2013-04-02 02:52:00,30.0,12.0,29.81,WNW,287,13.0,20.0,46,0.00,,,0.00,,2013-04-02 06:52:00,
2013-04-02 03:02:00,29.0,11.0,29.83,WNW,286,8.0,18.0,47,0.00,,,0.00,,2013-04-02 07:02:00,
2013-04-02 03:12:00,29.0,11.0,29.83,WNW,286,8.0,18.0,47,0.00,,,0.00,,2013-04-02 07:12:00,
2013-04-02 03:22:00,29.0,12.0,29.82,NW,325,9.0,14.0,49,0.00,,,0.00,,2013-04-02 07:22:00,
2013-04-02 03:32:00,29.0,12.0,29.82,WNW,289,15.0,23.0,48,0.00,,,0.00,,2013-04-02 07:32:00,
2013-04-02 03:42:00,29.0,12.0,29.82,WNW,289,15.0,23.0,48,0.00,,,0.00,,2013-04-02 07:42:00,
2013-04-02 03:53:00,29.0,12.0,29.82,WNW,286,10.0,24.0,49,0.00,,,0.00,,2013-04-02 07:53:00,
2013-04-02 04:02:00,29.0,12.0,29.82,WNW,302,11.0,21.0,49,0.00,,,0.00,,2013-04-02 08:02:00,
2013-04-02 04:13:00,29.0,12.0,29.82,WNW,302,11.0,21.0,49,0.00,,,0.00,,2013-04-02 08:13:00,
2013-04-02 04:22:00,28.0,12.0,29.82,WNW,291,6.0,-999.0,51,-99.99,,,-99.99,,2013-04-02 08:22:00,
2013-04-02 04:32:00,28.0,12.0,29.83,NW,304,8.0,-999.0,51,-99.99,,,-99.99,,2013-04-02 08:32:00,
2013-04-02 04:42:00,28.0,12.0,29.83,NW,304,8.0,-999.0,51,-99.99,,,-99.99,,2013-04-02 08:42:00,
2013-04-02 04:52:00,28.0,13.0,29.82,WNW,288,9.0,-999.0,52,-99.99,,,-99.99,,2013-04-02 08:52:00,
2013-04-02 05:02:00,28.0,14.0,29.82,West,281,9.0,-999.0,54,-99.99,,,-99.99,,2013-04-02 09:02:00,
2013-04-02 05:12:00,28.0,14.0,29.82,West,281,9.0,-999.0,54,-99.99,,,-99.99,,2013-04-02 09:12:00,
2013-04-02 05:22:00,28.0,14.0,29.82,West,267,4.0,-999.0,55,-99.99,,,-99.99,,2013-04-02 09:22:00,
2013-04-02 05:32:00,28.0,14.0,29.83,West,268,6.0,-999.0,56,-99.99,,,-99.99,,2013-04-02 09:32:00,
2013-04-02 05:43:00,28.0,14.0,29.83,West,268,6.0,-999.0,56,-99.99,,,-99.99,,2013-04-02 09:43:00,
2013-04-02 05:53:00,27.0,14.0,29.83,West,259,4.0,-999.0,57,-99.99,,,-99.99,,2013-04-02 09:53:00,
2013-04-02 06:03:00,27.0,14.0,29.83,West,263,8.0,-999.0,58,-99.99,,,-99.99,,2013-04-02 10:03:00,
2013-04-02 06:13:00,27.0,14.0,29.83,West,263,8.0,-999.0,58,-99.99,,,-99.99,,2013-04-02 10:13:00,
2013-04-02 06:23:00,27.0,14.0,29.83,West,259,7.0,-999.0,58,-99.99,,,-99.99,,2013-04-02 10:23:00,
2013-04-02 06:33:00,27.0,14.0,29.83,West,266,9.0,-999.0,58,-99.99,,,-99.99,,2013-04-02 10:33:00,
2013-04-02 06:42:00,27.0,14.0,29.83,West,266,9.0,-999.0,58,-99.99,,,-99.99,,2013-04-02 10:42:00,
2013-04-02 06:53:00,27.0,14.0,29.84,West,276,6.0,-999.0,57,-99.99,,,-99.99,,2013-04-02 10:53:00,
2013-04-02 07:02:00,27.0,14.0,29.84,West,264,10.0,-999.0,57,-99.99,,,-99.99,,2013-04-02 11:02:00,
2013-04-02 07:12:00,27.0,14.0,29.84,West,264,10.0,-999.0,57,-99.99,,,-99.99,,2013-04-02 11:12:00,
2013-04-02 07:22:00,27.0,14.0,29.85,West,269,6.0,-999.0,58,-99.99,,,-99.99,,2013-04-02 11:22:00,
2013-04-02 07:33:00,27.0,14.0,29.86,West,270,9.0,-999.0,58,-99.99,,,-99.99,,2013-04-02 11:33:00,
2013-04-02 07:43:00,27.0,14.0,29.86,West,270,9.0,-999.0,58,-99.99,,,-99.99,,2013-04-02 11:43:00,
2013-04-02 07:53:00,27.0,14.0,29.86,West,259,6.0,-999.0,58,-99.99,,,-99.99,,2013-04-02 11:53:00,
2013-04-02 08:02:00,28.0,15.0,29.87,West,261,6.0,-999.0,57,-99.99,,,-99.99,,2013-04-02 12:02:00,
2013-04-02 08:12:00,28.0,15.0,29.87,West,261,6.0,-999.0,57,-99.99,,,-99.99,,2013-04-02 12:12:00,
2013-04-02 08:23:00,29.0,15.0,29.87,West,275,11.0,-999.0,56,-99.99,,,-99.99,,2013-04-02 12:23:00,
2013-04-02 08:32:00,29.0,14.0,29.87,WNW,286,15.0,-999.0,53,-99.99,,,-99.99,,2013-04-02 12:32:00,
2013-04-02 08:42:00,29.0,14.0,29.87,WNW,286,15.0,-999.0,53,-99.99,,,-99.99,,2013-04-02 12:42:00,
2013-04-02 08:53:00,30.0,15.0,29.87,West,274,11.0,-999.0,52,-99.99,,,-99.99,,2013-04-02 12:53:00,
2013-04-02 09:02:00,30.0,15.0,29.88,WNW,293,15.0,-999.0,52,-99.99,,,-99.99,,2013-04-02 13:02:00,
2013-04-02 09:12:00,31.0,15.0,29.87,WSW,258,15.0,-999.0,51,-99.99,,,-99.99,,2013-04-02 13:12:00,
2013-04-02 09:22:00,31.0,15.0,29.87,WSW,258,15.0,-999.0,51,-99.99,,,-99.99,,2013-04-02 13:22:00,
2013-04-02 09:33:00,31.0,15.0,29.87,WNW,282,13.0,-999.0,50,-99.99,,,-99.99,,2013-04-02 13:33:00,
2013-04-02 09:42:00,31.0,15.0,29.87,WNW,282,13.0,-999.0,50,-99.99,,,-99.99,,2013-04-02 13:42:00,
2013-04-02 09:52:00,31.0,15.0,29.87,West,261,8.0,-999.0,50,-99.99,,,-99.99,,2013-04-02 13:52:00,
2013-04-02 10:02:00,31.0,15.0,29.87,NW,310,9.0,-999.0,51,-99.99,,,-99.99,,2013-04-02 14:02:00,
2013-04-02 10:12:00,31.0,15.0,29.87,NW,310,9.0,-999.0,51,-99.99,,,-99.99,,2013-04-02 14:12:00,
2013-04-02 10:23:00,31.0,15.0,29.87,West,267,14.0,-999.0,52,-99.99,,,-99.99,,2013-04-02 14:23:00,
2013-04-02 10:32:00,32.0,16.0,29.88,West,278,7.0,-999.0,51,-99.99,,,-99.99,,2013-04-02 14:32:00,
2013-04-02 10:42:00,32.0,16.0,29.88,West,278,7.0,-999.0,51,-99.99,,,-99.99,,2013-04-02 14:42:00,
2013-04-02 10:52:00,32.0,16.0,29.88,West,259,9.0,-999.0,51,-99.99,,,-99.99,,2013-04-02 14:52:00,
2013-04-02 11:02:00,33.0,14.0,29.87,West,271,14.0,-999.0,45,-99.99,,,-99.99,,2013-04-02 15:02:00,
2013-04-02 11:11:00,33.0,14.0,29.87,West,271,14.0,-999.0,45,-99.99,,,-99.99,,2013-04-02 15:11:00,
2013-04-02 11:22:00,32.0,13.0,29.88,West,276,10.0,-999.0,45,-99.99,,,-99.99,,2013-04-02 15:22:00,
2013-04-02 11:33:00,33.0,13.0,29.87,WNW,300,9.0,-999.0,44,-99.99,,,-99.99,,2013-04-02 15:33:00,
2013-04-02 11:43:00,33.0,13.0,29.87,WNW,300,9.0,-999.0,44,-99.99,,,-99.99,,2013-04-02 15:43:00,
2013-04-02 11:58:00,33.0,12.0,29.86,NW,309,12.0,-999.0,42,-99.99,,,-99.99,,2013-04-02 15:58:00,
2013-04-02 12:04:00,34.0,13.0,29.86,West,280,11.0,-999.0,42,-99.99,,,-99.99,,2013-04-02 16:04:00,
2013-04-02 12:13:00,34.0,13.0,29.86,West,280,11.0,-999.0,42,-99.99,,,-99.99,,2013-04-02 16:13:00,
2013-04-02 12:24:00,35.0,11.0,29.85,NW,320,16.0,-999.0,37,-99.99,,,-99.99,,2013-04-02 16:24:00,
2013-04-02 12:37:00,35.0,12.0,29.85,WNW,300,16.0,-999.0,38,-99.99,,,-99.99,,2013-04-02 16:37:00,
2013-04-02 12:44:00,35.0,12.0,29.85,WNW,300,16.0,-999.0,38,-99.99,,,-99.99,,2013-04-02 16:44:00,
2013-04-02 12:53:00,37.0,13.0,29.85,NW,306,15.0,-999.0,36,-99.99,,,-99.99,,2013-04-02 16:53:00,
2013-04-02 13:05:00,37.0,12.0,29.84,WNW,291,15.0,-999.0,35,-99.99,,,-99.99,,2013-04-02 17:05:00,
2013-04-02 13:13:00,37.0,12.0,29.84,WNW,291,15.0,-999.0,35,-99.99,,,-99.99,,2013-04-02 17:13:00,
2013-04-02 13:25:00,37.0,12.0,29.85,West,281,19.0,-999.0,35,-99.99,,,-99.99,,2013-04-02 17:25:00,
2013-04-02 13:34:00,37.0,11.0,29.84,West,278,20.0,-999.0,33,-99.99,,,-99.99,,2013-04-02 17:34:00,
2013-04-02 13:43:00,37.0,11.0,29.84,West,278,20.0,-999.0,33,-99.99,,,-99.99,,2013-04-02 17:43:00,
2013-04-02 13:56:00,38.0,13.0,29.83,WSW,255,20.0,-999.0,35,-99.99,,,-99.99,,2013-04-02 17:56:00,
2013-04-02 14:04:00,39.0,14.0,29.84,West,275,20.0,-999.0,35,-99.99,,,-99.99,,2013-04-02 18:04:00,
2013-04-02 14:12:00,39.0,14.0,29.84,West,275,20.0,-999.0,35,-99.99,,,-99.99,,2013-04-02 18:12:00,
2013-04-02 14:23:00,39.0,11.0,29.83,West,281,19.0,-999.0,31,-99.99,,,-99.99,,2013-04-02 18:23:00,
2013-04-02 14:34:00,39.0,10.0,29.83,WNW,283,20.0,-999.0,30,-99.99,,,-99.99,,2013-04-02 18:34:00,
2013-04-02 14:43:00,39.0,10.0,29.83,WNW,283,20.0,-999.0,30,-99.99,,,-99.99,,2013-04-02 18:43:00,
2013-04-02 14:57:00,36.0,8.0,29.83,WNW,302,19.0,-999.0,31,-99.99,,,-99.99,,2013-04-02 18:57:00,
2013-04-02 15:03:00,36.0,8.0,29.83,NW,310,14.0,28.0,30,0.00,,,0.00,,2013-04-02 19:03:00,
2013-04-02 15:13:00,36.0,8.0,29.83,NW,310,14.0,28.0,30,0.00,,,0.00,,2013-04-02 19:13:00,
2013-04-02 15:23:00,37.0,9.0,29.83,WNW,290,11.0,28.0,31,0.00,,,0.00,,2013-04-02 19:23:00,
2013-04-02 15:34:00,36.0,8.0,29.83,WNW,296,17.0,28.0,30,0.00,,,0.00,,2013-04-02 19:34:00,
2013-04-02 15:45:00,36.0,8.0,29.83,WNW,296,17.0,28.0,30,0.00,,,0.00,,2013-04-02 19:45:00,
2013-04-02 15:57:00,37.0,8.0,29.82,NW,313,15.0,32.0,29,0.00,,,0.00,,2013-04-02 19:57:00,
2013-04-02 16:13:00,37.0,8.0,29.82,WNW,302,19.0,33.0,29,0.00,,,0.00,,2013-04-02 20:13:00,
2013-04-02 16:22:00,36.0,7.0,29.83,WNW,297,16.0,34.0,29,0.00,,,0.00,,2013-04-02 20:22:00,
2013-04-02 16:33:00,37.0,8.0,29.82,WNW,303,16.0,26.0,29,0.00,,,0.00,,2013-04-02 20:33:00,
2013-04-02 16:44:00,37.0,8.0,29.82,WNW,303,16.0,26.0,29,0.00,,,0.00,,2013-04-02 20:44:00,
2013-04-02 17:04:00,36.0,8.0,29.83,WNW,295,23.0,30.0,30,0.00,,,0.00,,2013-04-02 21:04:00,
2013-04-02 17:13:00,36.0,8.0,29.83,WNW,295,23.0,30.0,30,0.00,,,0.00,,2013-04-02 21:13:00,
2013-04-02 17:23:00,36.0,8.0,29.84,WNW,291,14.0,24.0,30,0.00,,,0.00,,2013-04-02 21:23:00,
2013-04-02 17:35:00,36.0,8.0,29.85,NW,324,11.0,25.0,30,0.00,,,0.00,,2013-04-02 21:35:00,
2013-04-02 17:44:00,36.0,8.0,29.85,NW,324,11.0,25.0,30,0.00,,,0.00,,2013-04-02 21:44:00,
2013-04-02 17:56:00,36.0,8.0,29.85,West,269,16.0,29.0,30,0.00,,,0.00,,2013-04-02 21:56:00,
2013-04-02 18:04:00,36.0,9.0,29.86,NW,317,18.0,25.0,32,0.00,,,0.00,,2013-04-02 22:04:00,
2013-04-02 18:14:00,36.0,9.0,29.86,NW,317,18.0,25.0,32,0.00,,,0.00,,2013-04-02 22:14:00,
2013-04-02 18:24:00,35.0,10.0,29.86,WNW,300,8.0,23.0,35,0.00,,,0.00,,2013-04-02 22:24:00,
2013-04-02 18:33:00,35.0,11.0,29.87,NNW,348,10.0,22.0,36,0.00,,,0.00,,2013-04-02 22:33:00,
2013-04-02 18:43:00,35.0,11.0,29.87,NNW,348,10.0,22.0,36,0.00,,,0.00,,2013-04-02 22:43:00,
2013-04-02 18:54:00,35.0,11.0,29.88,WNW,295,13.0,21.0,37,0.00,,,0.00,,2013-04-02 22:54:00,
2013-04-02 19:03:00,34.0,9.0,29.89,NW,306,14.0,25.0,35,0.00,,,0.00,,2013-04-02 23:03:00,
2013-04-02 19:13:00,34.0,9.0,29.89,WNW,302,15.0,21.0,35,0.00,,,0.00,,2013-04-02 23:13:00,
2013-04-02 19:23:00,34.0,9.0,29.89,WNW,302,15.0,21.0,35,0.00,,,0.00,,2013-04-02 23:23:00,
2013-04-02 19:35:00,33.0,9.0,29.89,WNW,297,16.0,22.0,36,0.00,,,0.00,,2013-04-02 23:35:00,
2013-04-02 19:43:00,33.0,9.0,29.89,WNW,297,16.0,22.0,36,0.00,,,0.00,,2013-04-02 23:43:00,
2013-04-02 19:54:00,33.0,10.0,29.90,NW,309,12.0,20.0,37,0.00,,,0.00,,2013-04-02 23:54:00,
2013-04-02 20:04:00,32.0,9.0,29.90,NW,304,13.0,26.0,38,0.00,,,0.00,,2013-04-03 00:04:00,
2013-04-02 20:13:00,32.0,9.0,29.90,NW,304,13.0,26.0,38,0.00,,,0.00,,2013-04-03 00:13:00,
2013-04-02 20:25:00,32.0,10.0,29.90,WNW,302,12.0,-999.0,39,-99.99,,,-99.99,,2013-04-03 00:25:00,
2013-04-02 20:33:00,32.0,10.0,29.91,WNW,291,9.0,-999.0,40,-99.99,,,-99.99,,2013-04-03 00:33:00,
2013-04-02 20:47:00,32.0,10.0,29.91,WNW,291,9.0,-999.0,40,-99.99,,,-99.99,,2013-04-03 00:47:00,
2013-04-02 20:57:00,32.0,10.0,29.92,West,277,13.0,26.0,40,0.00,,,0.00,,2013-04-03 00:57:00,
2013-04-02 21:04:00,32.0,10.0,29.92,WNW,297,15.0,21.0,40,0.00,,,0.00,,2013-04-03 01:04:00,
2013-04-02 21:13:00,32.0,10.0,29.92,WNW,297,15.0,21.0,40,0.00,,,0.00,,2013-04-03 01:13:00,
2013-04-02 21:23:00,31.0,11.0,29.93,WNW,289,5.0,13.0,42,0.00,,,0.00,,2013-04-03 01:23:00,
2013-04-02 21:33:00,31.0,12.0,29.94,WNW,295,7.0,10.0,45,0.00,,,0.00,,2013-04-03 01:33:00,
2013-04-02 21:42:00,31.0,12.0,29.94,WNW,295,7.0,10.0,45,0.00,,,0.00,,2013-04-03 01:42:00,
2013-04-02 21:54:00,30.0,11.0,29.94,WNW,290,2.0,-999.0,45,-99.99,,,-99.99,,2013-04-03 01:54:00,
2013-04-02 22:03:00,30.0,12.0,29.95,West,273,6.0,-999.0,46,-99.99,,,-99.99,,2013-04-03 02:03:00,
2013-04-02 22:13:00,30.0,12.0,29.95,West,273,6.0,-999.0,46,-99.99,,,-99.99,,2013-04-03 02:13:00,
2013-04-02 22:24:00,30.0,12.0,29.94,West,280,8.0,-999.0,47,-99.99,,,-99.99,,2013-04-03 02:24:00,
2013-04-02 22:34:00,30.0,12.0,29.93,West,266,10.0,-999.0,47,-99.99,,,-99.99,,2013-04-03 02:34:00,
2013-04-02 22:44:00,30.0,12.0,29.93,West,266,10.0,-999.0,47,-99.99,,,-99.99,,2013-04-03 02:44:00,
2013-04-02 22:53:00,30.0,12.0,29.94,West,268,17.0,-999.0,46,-99.99,,,-99.99,,2013-04-03 02:53:00,
2013-04-02 23:05:00,30.0,12.0,29.94,WNW,289,4.0,-999.0,46,-99.99,,,-99.99,,2013-04-03 03:05:00,
2013-04-02 23:14:00,30.0,12.0,29.94,WNW,289,4.0,-999.0,46,-99.99,,,-99.99,,2013-04-03 03:14:00,
2013-04-02 23:23:00,30.0,12.0,29.94,WNW,292,11.0,-999.0,47,-99.99,,,-99.99,,2013-04-03 03:23:00,
2013-04-02 23:37:00,31.0,13.0,29.94,WNW,295,9.0,-999.0,46,-99.99,,,-99.99,,2013-04-03 03:37:00,
2013-04-02 23:44:00,31.0,13.0,29.94,WNW,295,9.0,-999.0,46,-99.99,,,-99.99,,2013-04-03 03:44:00,
2013-04-02 23:54:00,30.0,13.0,29.93,West,279,13.0,-999.0,48,-99.99,,,-99.99,,2013-04-03 03:54:00,